Time,TemperatureF,DewpointF,PressureIn,WindDirection,WindDirectionDegrees,WindSpeedMPH,WindSpeedGustMPH,Humidity,HourlyPrecipIn,Conditions,Clouds,dailyrainin,SoftwareType,DateUTC
2013-08-01 00:02:00,54.9,47.5,29.95,SSE,166,0.0,0.0,76,0.00,,,0.00,Wunderground v.1.15,2013-08-01 06:02:00,
2013-08-01 00:03:00,54.8,47.4,29.94,SSE,165,0.0,0.0,76,0.00,,,0.00,Wunderground v.1.15,2013-08-01 06:03:00,
2013-08-01 00:04:00,54.8,47.4,29.95,SSE,165,0.0,0.0,76,0.00,,,0.00,Wunderground v.1.15,2013-08-01 06:04:00,
2013-08-01 00:07:00,54.5,47.1,29.95,SSE,165,0.0,0.0,76,0.00,,,0.00,Wunderground v.1.15,2013-08-01 06:07:00,
2013-08-01 00:08:00,54.4,47.0,29.94,SSE,166,0.0,1.0,76,0.00,,,0.00,Wunderground v.1.15,2013-08-01 06:08:00,
2013-08-01 00:10:00,54.3,47.2,29.94,South,181,0.0,0.0,77,0.00,,,0.00,Wunderground v.1.15,2013-08-01 06:10:00,
2013-08-01 00:11:00,54.2,47.1,29.94,SSW,199,0.0,0.0,77,0.00,,,0.00,Wunderground v.1.15,2013-08-01 06:11:00,
2013-08-01 00:15:00,54.2,47.1,29.94,WSW,242,1.0,3.0,77,0.00,,,0.00,Wunderground v.1.15,2013-08-01 06:15:00,
2013-08-01 00:18:00,54.3,47.2,29.94,WSW,249,1.0,3.0,77,0.00,,,0.00,Wunderground v.1.15,2013-08-01 06:18:00,
2013-08-01 00:19:00,54.3,47.2,29.94,WSW,249,1.0,3.0,77,0.00,,,0.00,Wunderground v.1.15,2013-08-01 06:19:00,
2013-08-01 00:21:00,54.3,47.2,29.94,WSW,249,1.0,1.0,77,0.00,,,0.00,Wunderground v.1.15,2013-08-01 06:21:00,
2013-08-01 00:23:00,54.1,47.0,29.94,WSW,249,1.0,1.0,77,0.00,,,0.00,Wunderground v.1.15,2013-08-01 06:23:00,
2013-08-01 00:25:00,53.9,46.9,29.94,WSW,249,1.0,1.0,77,0.00,,,0.00,Wunderground v.1.15,2013-08-01 06:25:00,
2013-08-01 00:26:00,53.8,46.8,29.94,WSW,249,0.0,1.0,77,0.00,,,0.00,Wunderground v.1.15,2013-08-01 06:26:00,
2013-08-01 00:27:00,53.6,46.9,29.94,WSW,250,0.0,1.0,78,0.00,,,0.00,Wunderground v.1.15,2013-08-01 06:27:00,
2013-08-01 00:28:00,53.5,46.8,29.94,WSW,249,0.0,1.0,78,0.00,,,0.00,Wunderground v.1.15,2013-08-01 06:28:00,
2013-08-01 00:31:00,53.3,46.6,29.94,WSW,249,0.0,0.0,78,0.00,,,0.00,Wunderground v.1.15,2013-08-01 06:31:00,
2013-08-01 00:32:00,53.2,46.9,29.94,WSW,249,0.0,0.0,79,0.00,,,0.00,Wunderground v.1.15,2013-08-01 06:32:00,
2013-08-01 00:33:00,53.1,46.8,29.94,WSW,249,0.0,0.0,79,0.00,,,0.00,Wunderground v.1.15,2013-08-01 06:33:00,
2013-08-01 00:37:00,52.9,46.6,29.94,SE,142,0.0,1.0,79,0.00,,,0.00,Wunderground v.1.15,2013-08-01 06:37:00,
2013-08-01 00:38:00,52.8,46.5,29.94,SE,143,0.0,1.0,79,0.00,,,0.00,Wunderground v.1.15,2013-08-01 06:38:00,
2013-08-01 00:39:00,52.8,46.5,29.94,West,264,0.0,1.0,79,0.00,,,0.00,Wunderground v.1.15,2013-08-01 06:39:00,
2013-08-01 00:41:00,52.7,46.7,29.94,West,273,0.0,1.0,80,0.00,,,0.00,Wunderground v.1.15,2013-08-01 06:41:00,
2013-08-01 00:44:00,53.0,47.0,29.94,WSW,252,1.0,2.0,80,0.00,,,0.00,Wunderground v.1.15,2013-08-01 06:44:00,
2013-08-01 00:45:00,53.1,47.1,29.94,West,259,1.0,2.0,80,0.00,,,0.00,Wunderground v.1.15,2013-08-01 06:45:00,
2013-08-01 00:47:00,53.3,47.0,29.93,SW,229,1.0,2.0,79,0.00,,,0.00,Wunderground v.1.15,2013-08-01 06:47:00,
2013-08-01 00:48:00,53.4,47.0,29.93,SW,229,1.0,2.0,79,0.00,,,0.00,Wunderground v.1.15,2013-08-01 06:48:00,
2013-08-01 00:49:00,53.4,47.0,29.93,SW,223,1.0,2.0,79,0.00,,,0.00,Wunderground v.1.15,2013-08-01 06:49:00,
2013-08-01 00:53:00,53.5,46.8,29.93,WSW,240,1.0,1.0,78,0.00,,,0.00,Wunderground v.1.15,2013-08-01 06:53:00,
2013-08-01 00:55:00,53.4,46.7,29.93,WSW,240,1.0,1.0,78,0.00,,,0.00,Wunderground v.1.15,2013-08-01 06:55:00,
2013-08-01 00:56:00,53.2,46.5,29.93,WSW,240,1.0,1.0,78,0.00,,,0.00,Wunderground v.1.15,2013-08-01 06:56:00,
2013-08-01 00:57:00,53.2,46.9,29.93,WSW,240,1.0,1.0,79,0.00,,,0.00,Wunderground v.1.15,2013-08-01 06:57:00,
2013-08-01 00:58:00,53.1,46.8,29.93,WSW,240,1.0,1.0,79,0.00,,,0.00,Wunderground v.1.15,2013-08-01 06:58:00,
2013-08-01 00:59:00,53.0,46.7,29.93,WSW,241,1.0,1.0,79,0.00,,,0.00,Wunderground v.1.15,2013-08-01 06:59:00,
2013-08-01 01:04:00,52.9,46.6,29.93,WSW,257,0.0,2.0,79,0.00,,,0.00,Wunderground v.1.15,2013-08-01 07:04:00,
2013-08-01 01:05:00,52.9,46.6,29.93,WSW,257,0.0,2.0,79,0.00,,,0.00,Wunderground v.1.15,2013-08-01 07:05:00,
2013-08-01 01:06:00,52.9,46.6,29.93,WSW,257,0.0,2.0,79,0.00,,,0.00,Wunderground v.1.15,2013-08-01 07:06:00,
2013-08-01 01:10:00,52.7,46.7,29.93,West,259,0.0,1.0,80,0.00,,,0.00,Wunderground v.1.15,2013-08-01 07:10:00,
2013-08-01 01:11:00,52.7,46.7,29.93,West,259,0.0,1.0,80,0.00,,,0.00,Wunderground v.1.15,2013-08-01 07:11:00,
2013-08-01 01:12:00,52.6,46.6,29.93,West,259,0.0,1.0,80,0.00,,,0.00,Wunderground v.1.15,2013-08-01 07:12:00,
2013-08-01 01:15:00,52.6,46.6,29.93,SW,229,0.0,1.0,80,0.00,,,0.00,Wunderground v.1.15,2013-08-01 07:15:00,
2013-08-01 01:16:00,52.6,46.6,29.92,SW,229,0.0,1.0,80,0.00,,,0.00,Wunderground v.1.15,2013-08-01 07:16:00,
2013-08-01 01:17:00,52.6,46.6,29.92,SW,229,0.0,1.0,80,0.00,,,0.00,Wunderground v.1.15,2013-08-01 07:17:00,
2013-08-01 01:19:00,52.6,46.6,29.92,SW,229,0.0,1.0,80,0.00,,,0.00,Wunderground v.1.15,2013-08-01 07:19:00,
2013-08-01 01:22:00,52.6,46.6,29.92,SW,229,0.0,1.0,80,0.00,,,0.00,Wunderground v.1.15,2013-08-01 07:22:00,
2013-08-01 01:23:00,52.6,46.6,29.92,SW,229,0.0,1.0,80,0.00,,,0.00,Wunderground v.1.15,2013-08-01 07:23:00,
2013-08-01 01:25:00,52.8,46.8,29.92,SW,229,0.0,1.0,80,0.00,,,0.00,Wunderground v.1.15,2013-08-01 07:25:00,
2013-08-01 01:28:00,53.0,47.0,29.92,West,263,1.0,1.0,80,0.00,,,0.00,Wunderground v.1.15,2013-08-01 07:28:00,
2013-08-01 01:29:00,53.0,46.7,29.92,West,263,1.0,1.0,79,0.00,,,0.00,Wunderground v.1.15,2013-08-01 07:29:00,
2013-08-01 01:30:00,53.0,46.7,29.92,West,263,1.0,1.0,79,0.00,,,0.00,Wunderground v.1.15,2013-08-01 07:30:00,
2013-08-01 01:33:00,53.0,46.7,29.92,WSW,252,1.0,1.0,79,0.00,,,0.00,Wunderground v.1.15,2013-08-01 07:33:00,
2013-08-01 01:35:00,53.0,46.7,29.92,WSW,252,1.0,1.0,79,0.00,,,0.00,Wunderground v.1.15,2013-08-01 07:35:00,
2013-08-01 01:36:00,53.0,46.7,29.92,WSW,252,1.0,1.0,79,0.00,,,0.00,Wunderground v.1.15,2013-08-01 07:36:00,
2013-08-01 01:37:00,53.0,46.7,29.92,WSW,251,1.0,1.0,79,0.00,,,0.00,Wunderground v.1.15,2013-08-01 07:37:00,
2013-08-01 01:40:00,52.6,46.3,29.92,WSW,252,0.0,0.0,79,0.00,,,0.00,Wunderground v.1.15,2013-08-01 07:40:00,
2013-08-01 01:41:00,52.5,46.2,29.92,WNW,283,0.0,2.0,79,0.00,,,0.00,Wunderground v.1.15,2013-08-01 07:41:00,
2013-08-01 01:43:00,52.1,45.8,29.92,WNW,291,1.0,3.0,79,0.00,,,0.00,Wunderground v.1.15,2013-08-01 07:43:00,
2013-08-01 01:48:00,51.4,45.8,29.92,WNW,300,2.0,3.0,81,0.00,,,0.00,Wunderground v.1.15,2013-08-01 07:48:00,
2013-08-01 01:49:00,51.3,46.0,29.92,WNW,300,2.0,3.0,82,0.00,,,0.00,Wunderground v.1.15,2013-08-01 07:49:00,
2013-08-01 01:50:00,51.3,46.0,29.92,WNW,302,2.0,2.0,82,0.00,,,0.00,Wunderground v.1.15,2013-08-01 07:50:00,
2013-08-01 01:53:00,51.2,45.9,29.92,WNW,302,2.0,2.0,82,0.00,,,0.00,Wunderground v.1.15,2013-08-01 07:53:00,
2013-08-01 01:54:00,51.1,45.8,29.92,WNW,302,2.0,2.0,82,0.00,,,0.00,Wunderground v.1.15,2013-08-01 07:54:00,
2013-08-01 01:57:00,50.9,45.6,29.92,WNW,302,1.0,2.0,82,0.00,,,0.00,Wunderground v.1.15,2013-08-01 07:57:00,
2013-08-01 01:58:00,50.9,45.9,29.92,WNW,302,1.0,2.0,83,0.00,,,0.00,Wunderground v.1.15,2013-08-01 07:58:00,
2013-08-01 01:59:00,50.8,45.8,29.92,WNW,302,1.0,2.0,83,0.00,,,0.00,Wunderground v.1.15,2013-08-01 07:59:00,
2013-08-01 02:00:00,50.8,45.8,29.92,WNW,302,1.0,1.0,83,0.00,,,0.00,Wunderground v.1.15,2013-08-01 08:00:00,
2013-08-01 02:05:00,50.9,45.9,29.91,WNW,302,0.0,1.0,83,0.00,,,0.00,Wunderground v.1.15,2013-08-01 08:05:00,
2013-08-01 02:09:00,51.0,46.0,29.91,West,259,0.0,1.0,83,0.00,,,0.00,Wunderground v.1.15,2013-08-01 08:09:00,
2013-08-01 02:10:00,51.1,46.1,29.91,WSW,243,0.0,2.0,83,0.00,,,0.00,Wunderground v.1.15,2013-08-01 08:10:00,
2013-08-01 02:16:00,52.0,46.3,29.91,SSW,213,1.0,3.0,81,0.00,,,0.00,Wunderground v.1.15,2013-08-01 08:16:00,
2013-08-01 02:18:00,52.0,46.3,29.91,SE,145,1.0,3.0,81,0.00,,,0.00,Wunderground v.1.15,2013-08-01 08:18:00,
2013-08-01 02:20:00,51.8,46.2,29.91,SE,145,1.0,1.0,81,0.00,,,0.00,Wunderground v.1.15,2013-08-01 08:20:00,
2013-08-01 02:21:00,51.7,46.1,29.91,WSW,242,1.0,1.0,81,0.00,,,0.00,Wunderground v.1.15,2013-08-01 08:21:00,
2013-08-01 02:23:00,51.6,46.3,29.91,WSW,242,1.0,2.0,82,0.00,,,0.00,Wunderground v.1.15,2013-08-01 08:23:00,
2013-08-01 02:26:00,51.5,46.2,29.91,SSW,195,1.0,2.0,82,0.00,,,0.00,Wunderground v.1.15,2013-08-01 08:26:00,
2013-08-01 02:27:00,51.5,46.2,29.91,South,183,1.0,2.0,82,0.00,,,0.00,Wunderground v.1.15,2013-08-01 08:27:00,
2013-08-01 02:29:00,51.4,46.1,29.91,South,183,1.0,2.0,82,0.00,,,0.00,Wunderground v.1.15,2013-08-01 08:29:00,
2013-08-01 02:31:00,51.2,46.2,29.91,South,183,1.0,1.0,83,0.00,,,0.00,Wunderground v.1.15,2013-08-01 08:31:00,
2013-08-01 02:32:00,51.2,46.2,29.91,South,183,1.0,1.0,83,0.00,,,0.00,Wunderground v.1.15,2013-08-01 08:32:00,
2013-08-01 02:33:00,51.1,46.4,29.91,SSE,157,1.0,1.0,84,0.00,,,0.00,Wunderground v.1.15,2013-08-01 08:33:00,
2013-08-01 02:34:00,50.9,46.2,29.91,SE,131,0.0,1.0,84,0.00,,,0.00,Wunderground v.1.15,2013-08-01 08:34:00,
2013-08-01 02:40:00,50.4,45.7,29.91,SE,125,1.0,2.0,84,0.00,,,0.00,Wunderground v.1.15,2013-08-01 08:40:00,
2013-08-01 02:43:00,50.3,46.0,29.91,SE,125,1.0,2.0,85,0.00,,,0.00,Wunderground v.1.15,2013-08-01 08:43:00,
2013-08-01 02:44:00,50.4,46.4,29.91,SE,125,1.0,2.0,86,0.00,,,0.00,Wunderground v.1.15,2013-08-01 08:44:00,
2013-08-01 02:48:00,50.4,46.1,29.91,WNW,302,2.0,3.0,85,0.00,,,0.00,Wunderground v.1.15,2013-08-01 08:48:00,
2013-08-01 02:50:00,50.4,46.1,29.91,WNW,302,2.0,2.0,85,0.00,,,0.00,Wunderground v.1.15,2013-08-01 08:50:00,
2013-08-01 02:55:00,50.1,45.5,29.91,North,357,1.0,2.0,84,0.00,,,0.00,Wunderground v.1.15,2013-08-01 08:55:00,
2013-08-01 03:00:00,49.7,45.4,29.91,SSE,149,1.0,1.0,85,0.00,,,0.00,Wunderground v.1.15,2013-08-01 09:00:00,
2013-08-01 03:01:00,49.7,45.4,29.91,SSE,149,1.0,1.0,85,0.00,,,0.00,Wunderground v.1.15,2013-08-01 09:01:00,
2013-08-01 03:07:00,49.5,45.5,29.91,SSE,149,0.0,1.0,86,0.00,,,0.00,Wunderground v.1.15,2013-08-01 09:07:00,
2013-08-01 03:08:00,49.4,45.1,29.91,SSE,149,0.0,1.0,85,0.00,,,0.00,Wunderground v.1.15,2013-08-01 09:08:00,
2013-08-01 03:12:00,49.6,45.6,29.91,West,259,0.0,1.0,86,0.00,,,0.00,Wunderground v.1.15,2013-08-01 09:12:00,
2013-08-01 03:19:00,50.5,45.8,29.90,West,261,1.0,3.0,84,0.00,,,0.00,Wunderground v.1.15,2013-08-01 09:19:00,
2013-08-01 03:23:00,50.8,45.8,29.90,West,259,1.0,2.0,83,0.00,,,0.00,Wunderground v.1.15,2013-08-01 09:23:00,
2013-08-01 03:28:00,50.8,45.8,29.90,SSW,211,1.0,2.0,83,0.00,,,0.00,Wunderground v.1.15,2013-08-01 09:28:00,
2013-08-01 03:30:00,50.8,45.8,29.90,SSW,208,1.0,2.0,83,0.00,,,0.00,Wunderground v.1.15,2013-08-01 09:30:00,
2013-08-01 03:34:00,50.8,45.8,29.90,SSW,201,1.0,2.0,83,0.00,,,0.00,Wunderground v.1.15,2013-08-01 09:34:00,
2013-08-01 03:39:00,50.6,45.6,29.90,SSW,207,1.0,1.0,83,0.00,,,0.00,Wunderground v.1.15,2013-08-01 09:39:00,
2013-08-01 03:43:00,50.3,45.3,29.90,ESE,103,1.0,1.0,83,0.00,,,0.00,Wunderground v.1.15,2013-08-01 09:43:00,
2013-08-01 03:45:00,50.1,45.1,29.90,ESE,103,1.0,1.0,83,0.00,,,0.00,Wunderground v.1.15,2013-08-01 09:45:00,
2013-08-01 03:51:00,50.1,45.5,29.90,West,269,1.0,1.0,84,0.00,,,0.00,Wunderground v.1.15,2013-08-01 09:51:00,
2013-08-01 03:53:00,50.3,45.6,29.90,West,280,1.0,2.0,84,0.00,,,0.00,Wunderground v.1.15,2013-08-01 09:53:00,
2013-08-01 03:55:00,50.3,45.3,29.90,WNW,291,2.0,3.0,83,0.00,,,0.00,Wunderground v.1.15,2013-08-01 09:55:00,
2013-08-01 03:57:00,50.1,45.1,29.90,WNW,291,2.0,3.0,83,0.00,,,0.00,Wunderground v.1.15,2013-08-01 09:57:00,
2013-08-01 04:01:00,49.6,45.0,29.90,WNW,292,1.0,1.0,84,0.00,,,0.00,Wunderground v.1.15,2013-08-01 10:01:00,
2013-08-01 04:05:00,48.8,44.2,29.90,WNW,297,1.0,2.0,84,0.00,,,0.00,Wunderground v.1.15,2013-08-01 10:05:00,
2013-08-01 04:07:00,48.5,44.2,29.90,WNW,300,1.0,2.0,85,0.00,,,0.00,Wunderground v.1.15,2013-08-01 10:07:00,
2013-08-01 04:11:00,47.8,43.8,29.90,WNW,299,1.0,1.0,86,0.00,,,0.00,Wunderground v.1.15,2013-08-01 10:11:00,
2013-08-01 04:15:00,47.5,43.8,29.90,WNW,299,1.0,1.0,87,0.00,,,0.00,Wunderground v.1.15,2013-08-01 10:15:00,
2013-08-01 04:18:00,47.3,43.9,29.90,WNW,300,1.0,1.0,88,0.00,,,0.00,Wunderground v.1.15,2013-08-01 10:18:00,
2013-08-01 04:21:00,47.4,44.3,29.90,WNW,299,0.0,0.0,89,0.00,,,0.00,Wunderground v.1.15,2013-08-01 10:21:00,
2013-08-01 04:23:00,47.8,45.0,29.90,WSW,243,0.0,1.0,90,0.00,,,0.00,Wunderground v.1.15,2013-08-01 10:23:00,
2013-08-01 04:24:00,48.0,44.9,29.90,SW,228,1.0,1.0,89,0.00,,,0.00,Wunderground v.1.15,2013-08-01 10:24:00,
2013-08-01 04:30:00,49.1,45.4,29.89,SW,235,1.0,1.0,87,0.00,,,0.00,Wunderground v.1.15,2013-08-01 10:30:00,
2013-08-01 04:33:00,49.3,45.0,29.89,WSW,239,1.0,1.0,85,0.00,,,0.00,Wunderground v.1.15,2013-08-01 10:33:00,
2013-08-01 04:37:00,48.7,44.4,29.89,WSW,239,1.0,1.0,85,0.00,,,0.00,Wunderground v.1.15,2013-08-01 10:37:00,
2013-08-01 04:38:00,48.6,44.3,29.89,WSW,239,0.0,1.0,85,0.00,,,0.00,Wunderground v.1.15,2013-08-01 10:38:00,
2013-08-01 04:44:00,48.2,44.5,29.89,WSW,249,1.0,2.0,87,0.00,,,0.00,Wunderground v.1.15,2013-08-01 10:44:00,
2013-08-01 04:50:00,48.9,44.6,29.89,WNW,303,1.0,4.0,85,0.00,,,0.00,Wunderground v.1.15,2013-08-01 10:50:00,
2013-08-01 04:51:00,48.7,44.1,29.89,WNW,303,2.0,4.0,84,0.00,,,0.00,Wunderground v.1.15,2013-08-01 10:51:00,
2013-08-01 04:54:00,48.1,43.8,29.89,NW,304,2.0,4.0,85,0.00,,,0.00,Wunderground v.1.15,2013-08-01 10:54:00,
2013-08-01 04:56:00,47.7,43.7,29.89,NW,304,2.0,4.0,86,0.00,,,0.00,Wunderground v.1.15,2013-08-01 10:56:00,
2013-08-01 04:58:00,47.6,44.2,29.89,WNW,300,2.0,4.0,88,0.00,,,0.00,Wunderground v.1.15,2013-08-01 10:58:00,
2013-08-01 05:00:00,47.6,44.2,29.89,WNW,302,2.0,2.0,88,0.00,,,0.00,Wunderground v.1.15,2013-08-01 11:00:00,
2013-08-01 05:05:00,47.3,43.6,29.89,WNW,302,1.0,2.0,87,0.00,,,0.00,Wunderground v.1.15,2013-08-01 11:05:00,
2013-08-01 05:07:00,47.1,43.4,29.89,WNW,302,1.0,2.0,87,0.00,,,0.00,Wunderground v.1.15,2013-08-01 11:07:00,
2013-08-01 05:14:00,46.8,43.7,29.89,WNW,302,0.0,1.0,89,0.00,,,0.00,Wunderground v.1.15,2013-08-01 11:14:00,
2013-08-01 05:16:00,46.9,44.1,29.89,WNW,300,0.0,1.0,90,0.00,,,0.00,Wunderground v.1.15,2013-08-01 11:16:00,
2013-08-01 05:19:00,47.2,44.1,29.89,SW,229,1.0,1.0,89,0.00,,,0.00,Wunderground v.1.15,2013-08-01 11:19:00,
2013-08-01 05:21:00,47.7,44.6,29.89,West,264,1.0,2.0,89,0.00,,,0.00,Wunderground v.1.15,2013-08-01 11:21:00,
2013-08-01 05:23:00,48.1,44.7,29.89,WSW,256,1.0,2.0,88,0.00,,,0.00,Wunderground v.1.15,2013-08-01 11:23:00,
2013-08-01 05:27:00,48.3,44.6,29.89,West,264,2.0,2.0,87,0.00,,,0.00,Wunderground v.1.15,2013-08-01 11:27:00,
2013-08-01 05:28:00,48.4,44.4,29.89,West,266,2.0,2.0,86,0.00,,,0.00,Wunderground v.1.15,2013-08-01 11:28:00,
2013-08-01 05:29:00,48.5,44.5,29.89,WSW,249,1.0,2.0,86,0.00,,,0.00,Wunderground v.1.15,2013-08-01 11:29:00,
2013-08-01 05:34:00,48.7,44.4,29.89,WNW,282,1.0,2.0,85,0.00,,,0.00,Wunderground v.1.15,2013-08-01 11:34:00,
2013-08-01 05:35:00,48.8,44.5,29.89,West,273,1.0,2.0,85,0.00,,,0.00,Wunderground v.1.15,2013-08-01 11:35:00,
2013-08-01 05:41:00,48.8,44.2,29.89,SSE,165,1.0,1.0,84,0.00,,,0.00,Wunderground v.1.15,2013-08-01 11:41:00,
2013-08-01 05:43:00,48.6,44.0,29.89,SSE,165,0.0,1.0,84,0.00,,,0.00,Wunderground v.1.15,2013-08-01 11:43:00,
2013-08-01 05:47:00,47.8,43.8,29.89,SSE,153,0.0,1.0,86,0.00,,,0.00,Wunderground v.1.15,2013-08-01 11:47:00,
2013-08-01 05:50:00,47.6,43.6,29.89,SSE,152,0.0,0.0,86,0.00,,,0.00,Wunderground v.1.15,2013-08-01 11:50:00,
2013-08-01 05:51:00,47.5,43.5,29.89,SSE,152,0.0,0.0,86,0.00,,,0.00,Wunderground v.1.15,2013-08-01 11:51:00,
2013-08-01 05:56:00,47.1,43.7,29.89,SSE,153,0.0,0.0,88,0.00,,,0.00,Wunderground v.1.15,2013-08-01 11:56:00,
2013-08-01 05:57:00,47.1,43.7,29.89,SSE,152,0.0,0.0,88,0.00,,,0.00,Wunderground v.1.15,2013-08-01 11:57:00,
2013-08-01 06:00:00,47.1,43.7,29.90,SSE,152,0.0,0.0,88,0.00,,,0.00,Wunderground v.1.15,2013-08-01 12:00:00,
2013-08-01 06:03:00,46.9,43.2,29.90,SSE,152,0.0,0.0,87,0.00,,,0.00,Wunderground v.1.15,2013-08-01 12:03:00,
2013-08-01 06:06:00,46.8,43.4,29.90,SSE,152,0.0,0.0,88,0.00,,,0.00,Wunderground v.1.15,2013-08-01 12:06:00,
2013-08-01 06:07:00,46.7,43.3,29.90,SSE,152,0.0,0.0,88,0.00,,,0.00,Wunderground v.1.15,2013-08-01 12:07:00,
2013-08-01 06:13:00,46.5,43.4,29.89,SSE,153,0.0,0.0,89,0.00,,,0.00,Wunderground v.1.15,2013-08-01 12:13:00,
2013-08-01 06:15:00,46.5,43.4,29.90,SSE,153,0.0,0.0,89,0.00,,,0.00,Wunderground v.1.15,2013-08-01 12:15:00,
2013-08-01 06:19:00,46.7,43.6,29.90,SSE,154,0.0,0.0,89,0.00,,,0.00,Wunderground v.1.15,2013-08-01 12:19:00,
2013-08-01 06:23:00,46.9,43.8,29.90,SSE,154,0.0,0.0,89,0.00,,,0.00,Wunderground v.1.15,2013-08-01 12:23:00,
2013-08-01 06:29:00,46.9,43.8,29.90,SSE,153,0.0,0.0,89,0.00,,,0.00,Wunderground v.1.15,2013-08-01 12:29:00,
2013-08-01 06:32:00,46.9,43.8,29.90,SSE,153,0.0,0.0,89,0.00,,,0.00,Wunderground v.1.15,2013-08-01 12:32:00,
2013-08-01 06:35:00,47.0,43.9,29.89,SSE,153,0.0,0.0,89,0.00,,,0.00,Wunderground v.1.15,2013-08-01 12:35:00,
2013-08-01 06:37:00,47.1,44.0,29.90,West,276,0.0,1.0,89,0.00,,,0.00,Wunderground v.1.15,2013-08-01 12:37:00,
2013-08-01 06:38:00,47.3,44.2,29.90,WNW,297,0.0,1.0,89,0.00,,,0.00,Wunderground v.1.15,2013-08-01 12:38:00,
2013-08-01 06:42:00,47.7,44.3,29.90,WNW,298,0.0,0.0,88,0.00,,,0.00,Wunderground v.1.15,2013-08-01 12:42:00,
2013-08-01 06:44:00,47.8,44.1,29.90,WNW,297,0.0,0.0,87,0.00,,,0.00,Wunderground v.1.15,2013-08-01 12:44:00,
2013-08-01 06:47:00,48.2,44.5,29.90,WSW,257,0.0,0.0,87,0.00,,,0.00,Wunderground v.1.15,2013-08-01 12:47:00,
2013-08-01 06:48:00,48.2,44.5,29.90,WSW,257,0.0,0.0,87,0.00,,,0.00,Wunderground v.1.15,2013-08-01 12:48:00,
2013-08-01 06:54:00,48.4,44.4,29.90,West,264,0.0,1.0,86,0.00,,,0.00,Wunderground v.1.15,2013-08-01 12:54:00,
2013-08-01 06:55:00,48.5,44.5,29.89,West,264,0.0,1.0,86,0.00,,,0.00,Wunderground v.1.15,2013-08-01 12:55:00,
2013-08-01 06:58:00,48.8,44.8,29.89,West,264,0.0,1.0,86,0.00,,,0.00,Wunderground v.1.15,2013-08-01 12:58:00,
2013-08-01 07:00:00,49.0,45.0,29.89,West,264,0.0,0.0,86,0.00,,,0.00,Wunderground v.1.15,2013-08-01 13:00:00,
2013-08-01 07:06:00,49.3,45.3,29.89,South,191,0.0,1.0,86,0.00,,,0.00,Wunderground v.1.15,2013-08-01 13:06:00,
2013-08-01 07:08:00,49.4,45.7,29.89,SSW,192,0.0,1.0,87,0.00,,,0.00,Wunderground v.1.15,2013-08-01 13:08:00,
2013-08-01 07:11:00,49.7,46.0,29.89,SSW,192,0.0,0.0,87,0.00,,,0.00,Wunderground v.1.15,2013-08-01 13:11:00,
2013-08-01 07:14:00,50.0,45.4,29.89,WNW,284,1.0,2.0,84,0.00,,,0.00,Wunderground v.1.15,2013-08-01 13:14:00,
2013-08-01 07:15:00,50.1,45.1,29.89,WNW,284,1.0,2.0,83,0.00,,,0.00,Wunderground v.1.15,2013-08-01 13:15:00,
2013-08-01 07:20:00,50.6,45.3,29.89,NW,308,1.0,1.0,82,0.00,,,0.00,Wunderground v.1.15,2013-08-01 13:20:00,
2013-08-01 07:22:00,50.8,45.5,29.89,NW,308,1.0,1.0,82,0.00,,,0.00,Wunderground v.1.15,2013-08-01 13:22:00,
2013-08-01 07:25:00,51.2,46.5,29.89,NW,304,0.0,1.0,84,0.00,,,0.00,Wunderground v.1.15,2013-08-01 13:25:00,
2013-08-01 07:26:00,51.3,46.6,29.89,NW,305,0.0,1.0,84,0.00,,,0.00,Wunderground v.1.15,2013-08-01 13:26:00,
2013-08-01 07:29:00,51.4,46.7,29.89,NW,305,0.0,1.0,84,0.00,,,0.00,Wunderground v.1.15,2013-08-01 13:29:00,
2013-08-01 07:33:00,51.8,46.8,29.88,NW,308,0.0,0.0,83,0.00,,,0.00,Wunderground v.1.15,2013-08-01 13:33:00,
2013-08-01 07:39:00,53.4,47.7,29.89,East,80,0.0,1.0,81,0.00,,,0.00,Wunderground v.1.15,2013-08-01 13:39:00,
2013-08-01 07:41:00,54.1,47.7,29.88,East,80,0.0,0.0,79,0.00,,,0.00,Wunderground v.1.15,2013-08-01 13:41:00,
2013-08-01 07:48:00,55.8,49.0,29.88,ESE,115,1.0,1.0,78,0.00,,,0.00,Wunderground v.1.15,2013-08-01 13:48:00,
2013-08-01 07:50:00,56.3,48.8,29.88,ESE,118,1.0,1.0,76,0.00,,,0.00,Wunderground v.1.15,2013-08-01 13:50:00,
2013-08-01 07:56:00,57.2,48.6,29.88,SE,140,1.0,1.0,73,0.00,,,0.00,Wunderground v.1.15,2013-08-01 13:56:00,
2013-08-01 07:58:00,57.7,49.1,29.88,SSE,147,1.0,1.0,73,0.00,,,0.00,Wunderground v.1.15,2013-08-01 13:58:00,
2013-08-01 08:00:00,58.1,49.1,29.88,SSE,147,0.0,0.0,72,0.00,,,0.00,Wunderground v.1.15,2013-08-01 14:00:00,
2013-08-01 08:04:00,59.4,49.2,29.87,SSE,148,0.0,0.0,69,0.00,,,0.00,Wunderground v.1.15,2013-08-01 14:04:00,
2013-08-01 08:10:00,59.9,48.5,29.87,SSE,148,0.0,0.0,66,0.00,,,0.00,Wunderground v.1.15,2013-08-01 14:10:00,
2013-08-01 08:17:00,62.0,49.7,29.87,SE,146,0.0,0.0,64,0.00,,,0.00,Wunderground v.1.15,2013-08-01 14:17:00,
2013-08-01 08:18:00,62.2,50.3,29.87,SE,146,0.0,0.0,65,0.00,,,0.00,Wunderground v.1.15,2013-08-01 14:18:00,
2013-08-01 08:22:00,62.7,51.2,29.86,ESE,121,0.0,0.0,66,0.00,,,0.00,Wunderground v.1.15,2013-08-01 14:22:00,
2013-08-01 08:24:00,62.9,51.0,29.86,SE,134,0.0,1.0,65,0.00,,,0.00,Wunderground v.1.15,2013-08-01 14:24:00,
2013-08-01 08:28:00,63.0,50.6,29.86,SE,131,0.0,1.0,64,0.00,,,0.00,Wunderground v.1.15,2013-08-01 14:28:00,
2013-08-01 08:34:00,63.7,51.7,29.86,East,100,1.0,2.0,65,0.00,,,0.00,Wunderground v.1.15,2013-08-01 14:34:00,
2013-08-01 08:35:00,63.8,51.4,29.86,East,98,1.0,2.0,64,0.00,,,0.00,Wunderground v.1.15,2013-08-01 14:35:00,
2013-08-01 08:37:00,64.0,50.7,29.86,SE,142,1.0,2.0,62,0.00,,,0.00,Wunderground v.1.15,2013-08-01 14:37:00,
2013-08-01 08:40:00,64.5,51.6,29.86,ESE,103,1.0,1.0,63,0.00,,,0.00,Wunderground v.1.15,2013-08-01 14:40:00,
2013-08-01 08:41:00,64.6,51.7,29.86,ESE,111,1.0,1.0,63,0.00,,,0.00,Wunderground v.1.15,2013-08-01 14:41:00,
2013-08-01 08:47:00,65.3,51.1,29.85,SSE,153,1.0,3.0,60,0.00,,,0.00,Wunderground v.1.15,2013-08-01 14:47:00,
2013-08-01 08:52:00,65.8,51.1,29.85,ESE,114,1.0,3.0,59,0.00,,,0.00,Wunderground v.1.15,2013-08-01 14:52:00,
2013-08-01 08:53:00,65.8,51.5,29.85,East,101,1.0,3.0,60,0.00,,,0.00,Wunderground v.1.15,2013-08-01 14:53:00,
2013-08-01 08:58:00,66.1,52.7,29.85,SE,134,1.0,3.0,62,0.00,,,0.00,Wunderground v.1.15,2013-08-01 14:58:00,
2013-08-01 08:59:00,66.2,53.2,29.84,SE,140,1.0,3.0,63,0.00,,,0.00,Wunderground v.1.15,2013-08-01 14:59:00,
2013-08-01 09:04:00,66.5,50.8,29.84,ESE,106,1.0,3.0,57,0.00,,,0.00,Wunderground v.1.15,2013-08-01 15:04:00,
2013-08-01 09:07:00,67.0,51.7,29.84,ESE,111,1.0,3.0,58,0.00,,,0.00,Wunderground v.1.15,2013-08-01 15:07:00,
2013-08-01 09:11:00,68.1,51.8,29.84,SE,128,1.0,1.0,56,0.00,,,0.00,Wunderground v.1.15,2013-08-01 15:11:00,
2013-08-01 09:13:00,68.6,52.3,29.84,ESE,109,1.0,2.0,56,0.00,,,0.00,Wunderground v.1.15,2013-08-01 15:13:00,
2013-08-01 09:18:00,69.6,52.2,29.83,ESE,105,1.0,2.0,54,0.00,,,0.00,Wunderground v.1.15,2013-08-01 15:18:00,
2013-08-01 09:19:00,69.9,52.0,29.83,ESE,111,1.0,2.0,53,0.00,,,0.00,Wunderground v.1.15,2013-08-01 15:19:00,
2013-08-01 09:20:00,70.4,51.4,29.83,SW,215,1.0,1.0,51,0.00,,,0.00,Wunderground v.1.15,2013-08-01 15:20:00,
2013-08-01 09:23:00,71.1,51.5,29.83,SE,131,1.0,1.0,50,0.00,,,0.00,Wunderground v.1.15,2013-08-01 15:23:00,
2013-08-01 09:25:00,71.4,51.8,29.83,ESE,114,1.0,2.0,50,0.00,,,0.00,Wunderground v.1.15,2013-08-01 15:25:00,
2013-08-01 09:28:00,72.2,51.4,29.83,SE,128,1.0,2.0,48,0.00,,,0.00,Wunderground v.1.15,2013-08-01 15:28:00,
2013-08-01 09:31:00,73.0,51.6,29.83,ESE,109,1.0,1.0,47,0.00,,,0.00,Wunderground v.1.15,2013-08-01 15:31:00,
2013-08-01 09:33:00,73.5,50.9,29.83,ESE,123,1.0,2.0,45,0.00,,,0.00,Wunderground v.1.15,2013-08-01 15:33:00,
2013-08-01 09:36:00,74.2,49.6,29.82,SSE,158,1.0,2.0,42,0.00,,,0.00,Wunderground v.1.15,2013-08-01 15:36:00,
2013-08-01 09:43:00,75.2,49.9,29.82,SE,133,1.0,1.0,41,0.00,,,0.00,Wunderground v.1.15,2013-08-01 15:43:00,
2013-08-01 09:49:00,76.2,48.0,29.82,ESE,107,1.0,2.0,37,0.00,,,0.00,Wunderground v.1.15,2013-08-01 15:49:00,
2013-08-01 09:50:00,76.3,48.1,29.82,SSE,149,1.0,1.0,37,0.00,,,0.00,Wunderground v.1.15,2013-08-01 15:50:00,
2013-08-01 09:58:00,76.8,46.3,29.81,East,96,1.0,3.0,34,0.00,,,0.00,Wunderground v.1.15,2013-08-01 15:58:00,
2013-08-01 10:02:00,77.0,39.5,29.82,West,276,3.0,11.0,26,0.00,,,0.00,Wunderground v.1.15,2013-08-01 16:02:00,
2013-08-01 10:04:00,77.1,38.6,29.82,SW,215,4.0,11.0,25,0.00,,,0.00,Wunderground v.1.15,2013-08-01 16:04:00,
2013-08-01 10:09:00,77.5,38.9,29.82,SW,235,6.0,11.0,25,0.00,,,0.00,Wunderground v.1.15,2013-08-01 16:09:00,
2013-08-01 10:10:00,77.5,38.9,29.82,West,263,7.0,8.0,25,0.00,,,0.00,Wunderground v.1.15,2013-08-01 16:10:00,
2013-08-01 10:15:00,77.7,40.1,29.82,WNW,288,7.0,12.0,26,0.00,,,0.00,Wunderground v.1.15,2013-08-01 16:15:00,
2013-08-01 10:17:00,77.8,39.1,29.82,WSW,241,7.0,12.0,25,0.00,,,0.00,Wunderground v.1.15,2013-08-01 16:17:00,
2013-08-01 10:21:00,77.7,38.0,29.82,West,262,8.0,11.0,24,0.00,,,0.00,Wunderground v.1.15,2013-08-01 16:21:00,
2013-08-01 10:25:00,77.6,39.0,29.82,WSW,246,10.0,15.0,25,0.00,,,0.00,Wunderground v.1.15,2013-08-01 16:25:00,
2013-08-01 10:26:00,77.6,39.0,29.82,West,266,10.0,15.0,25,0.00,,,0.00,Wunderground v.1.15,2013-08-01 16:26:00,
2013-08-01 10:27:00,77.7,39.1,29.82,WNW,294,10.0,15.0,25,0.00,,,0.00,Wunderground v.1.15,2013-08-01 16:27:00,
2013-08-01 10:33:00,78.1,39.4,29.82,WNW,292,9.0,15.0,25,0.00,,,0.00,Wunderground v.1.15,2013-08-01 16:33:00,
2013-08-01 10:34:00,78.0,39.3,29.82,West,259,8.0,15.0,25,0.00,,,0.00,Wunderground v.1.15,2013-08-01 16:34:00,
2013-08-01 10:37:00,77.7,39.1,29.82,WSW,252,9.0,15.0,25,0.00,,,0.00,Wunderground v.1.15,2013-08-01 16:37:00,
2013-08-01 10:41:00,77.4,38.8,29.82,NW,305,10.0,10.0,25,0.00,,,0.00,Wunderground v.1.15,2013-08-01 16:41:00,
2013-08-01 10:43:00,77.3,38.7,29.82,WSW,255,9.0,12.0,25,0.00,,,0.00,Wunderground v.1.15,2013-08-01 16:43:00,
2013-08-01 10:44:00,77.2,38.6,29.82,WSW,248,9.0,13.0,25,0.00,,,0.00,Wunderground v.1.15,2013-08-01 16:44:00,
2013-08-01 10:48:00,77.1,39.6,29.82,WSW,257,9.0,13.0,26,0.00,,,0.00,Wunderground v.1.15,2013-08-01 16:48:00,
2013-08-01 10:51:00,77.1,39.6,29.82,WNW,282,9.0,12.0,26,0.00,,,0.00,Wunderground v.1.15,2013-08-01 16:51:00,
2013-08-01 10:52:00,77.0,39.5,29.82,WNW,284,9.0,13.0,26,0.00,,,0.00,Wunderground v.1.15,2013-08-01 16:52:00,
2013-08-01 10:59:00,76.9,39.4,29.82,SW,236,9.0,13.0,26,0.00,,,0.00,Wunderground v.1.15,2013-08-01 16:59:00,
2013-08-01 11:02:00,77.4,39.8,29.82,WNW,287,8.0,9.0,26,0.00,,,0.00,Wunderground v.1.15,2013-08-01 17:02:00,
2013-08-01 11:04:00,77.4,39.8,29.82,West,270,8.0,10.0,26,0.00,,,0.00,Wunderground v.1.15,2013-08-01 17:04:00,
2013-08-01 11:13:00,77.3,39.7,29.82,West,272,10.0,12.0,26,0.00,,,0.00,Wunderground v.1.15,2013-08-01 17:13:00,
2013-08-01 11:14:00,77.4,40.8,29.82,West,280,10.0,12.0,27,0.00,,,0.00,Wunderground v.1.15,2013-08-01 17:14:00,
2013-08-01 11:18:00,77.5,39.9,29.82,WNW,293,9.0,12.0,26,0.00,,,0.00,Wunderground v.1.15,2013-08-01 17:18:00,
2013-08-01 11:19:00,77.4,39.8,29.82,West,280,9.0,12.0,26,0.00,,,0.00,Wunderground v.1.15,2013-08-01 17:19:00,
2013-08-01 11:22:00,77.3,38.7,29.82,WSW,249,9.0,12.0,25,0.00,,,0.00,Wunderground v.1.15,2013-08-01 17:22:00,
2013-08-01 11:25:00,77.5,39.9,29.82,WSW,245,8.0,12.0,26,0.00,,,0.00,Wunderground v.1.15,2013-08-01 17:25:00,
2013-08-01 11:26:00,77.6,40.0,29.82,NW,305,8.0,12.0,26,0.00,,,0.00,Wunderground v.1.15,2013-08-01 17:26:00,
2013-08-01 11:32:00,78.1,39.4,29.82,WNW,300,6.0,11.0,25,0.00,,,0.00,Wunderground v.1.15,2013-08-01 17:32:00,
2013-08-01 11:33:00,78.0,39.3,29.82,WNW,297,6.0,11.0,25,0.00,,,0.00,Wunderground v.1.15,2013-08-01 17:33:00,
2013-08-01 11:36:00,77.9,39.2,29.82,WNW,293,6.0,11.0,25,0.00,,,0.00,Wunderground v.1.15,2013-08-01 17:36:00,
2013-08-01 11:38:00,77.8,39.1,29.81,WNW,294,6.0,11.0,25,0.00,,,0.00,Wunderground v.1.15,2013-08-01 17:38:00,
2013-08-01 11:39:00,77.8,39.1,29.81,WNW,302,6.0,11.0,25,0.00,,,0.00,Wunderground v.1.15,2013-08-01 17:39:00,
2013-08-01 11:42:00,77.6,39.0,29.81,NW,312,6.0,6.0,25,0.00,,,0.00,Wunderground v.1.15,2013-08-01 17:42:00,
2013-08-01 11:50:00,78.0,38.3,29.81,WNW,297,6.0,7.0,24,0.00,,,0.00,Wunderground v.1.15,2013-08-01 17:50:00,
2013-08-01 11:53:00,77.8,39.1,29.81,NW,305,6.0,9.0,25,0.00,,,0.00,Wunderground v.1.15,2013-08-01 17:53:00,
2013-08-01 11:54:00,77.8,39.1,29.81,NNE,12,6.0,9.0,25,0.00,,,0.00,Wunderground v.1.15,2013-08-01 17:54:00,
2013-08-01 12:00:00,78.0,40.3,29.81,West,274,6.0,8.0,26,0.00,,,0.00,Wunderground v.1.15,2013-08-01 18:00:00,
2013-08-01 12:06:00,78.9,40.1,29.81,NNE,31,5.0,8.0,25,0.00,,,0.00,Wunderground v.1.15,2013-08-01 18:06:00,
2013-08-01 12:10:00,78.8,40.0,29.80,West,269,5.0,5.0,25,0.00,,,0.00,Wunderground v.1.15,2013-08-01 18:10:00,
2013-08-01 12:13:00,78.7,39.9,29.80,NNE,30,5.0,5.0,25,0.00,,,0.00,Wunderground v.1.15,2013-08-01 18:13:00,
2013-08-01 12:15:00,78.8,41.0,29.80,WNW,288,5.0,6.0,26,0.00,,,0.00,Wunderground v.1.15,2013-08-01 18:15:00,
2013-08-01 12:19:00,79.3,39.4,29.80,East,95,4.0,6.0,24,0.00,,,0.00,Wunderground v.1.15,2013-08-01 18:19:00,
2013-08-01 12:23:00,79.2,40.3,29.80,WSW,238,4.0,6.0,25,0.00,,,0.00,Wunderground v.1.15,2013-08-01 18:23:00,
2013-08-01 12:25:00,79.4,40.5,29.80,SW,218,4.0,6.0,25,0.00,,,0.00,Wunderground v.1.15,2013-08-01 18:25:00,
2013-08-01 12:26:00,79.7,40.8,29.80,SE,128,3.0,6.0,25,0.00,,,0.00,Wunderground v.1.15,2013-08-01 18:26:00,
2013-08-01 12:29:00,80.5,40.4,29.79,SSW,204,3.0,3.0,24,0.00,,,0.00,Wunderground v.1.15,2013-08-01 18:29:00,
2013-08-01 12:31:00,80.5,40.4,29.79,WSW,243,2.0,4.0,24,0.00,,,0.00,Wunderground v.1.15,2013-08-01 18:31:00,
2013-08-01 12:38:00,79.9,41.9,29.79,South,174,2.0,4.0,26,0.00,,,0.00,Wunderground v.1.15,2013-08-01 18:38:00,
2013-08-01 12:39:00,80.0,41.0,29.79,SSW,211,2.0,5.0,25,0.00,,,0.00,Wunderground v.1.15,2013-08-01 18:39:00,
2013-08-01 12:40:00,80.1,41.1,29.79,SSW,195,2.0,2.0,25,0.00,,,0.00,Wunderground v.1.15,2013-08-01 18:40:00,
2013-08-01 12:45:00,79.7,39.7,29.78,SSW,200,2.0,4.0,24,0.00,,,0.00,Wunderground v.1.15,2013-08-01 18:45:00,
2013-08-01 12:46:00,79.7,40.8,29.78,SE,133,2.0,4.0,25,0.00,,,0.00,Wunderground v.1.15,2013-08-01 18:46:00,
2013-08-01 12:52:00,80.3,41.3,29.78,ESE,111,2.0,4.0,25,0.00,,,0.00,Wunderground v.1.15,2013-08-01 18:52:00,
2013-08-01 12:53:00,80.3,41.3,29.78,ESE,123,2.0,4.0,25,0.00,,,0.00,Wunderground v.1.15,2013-08-01 18:53:00,
2013-08-01 12:54:00,80.3,41.3,29.78,ESE,119,2.0,4.0,25,0.00,,,0.00,Wunderground v.1.15,2013-08-01 18:54:00,
2013-08-01 12:57:00,80.3,42.3,29.78,East,99,2.0,4.0,26,0.00,,,0.00,Wunderground v.1.15,2013-08-01 18:57:00,
2013-08-01 13:01:00,80.2,41.2,29.77,ESE,120,3.0,4.0,25,0.00,,,0.00,Wunderground v.1.15,2013-08-01 19:01:00,
2013-08-01 13:04:00,80.1,43.1,29.77,East,96,3.0,4.0,27,0.00,,,0.00,Wunderground v.1.15,2013-08-01 19:04:00,
2013-08-01 13:09:00,80.1,42.1,29.77,ESE,118,3.0,5.0,26,0.00,,,0.00,Wunderground v.1.15,2013-08-01 19:09:00,
2013-08-01 13:11:00,80.2,41.2,29.77,SE,146,3.0,7.0,25,0.00,,,0.00,Wunderground v.1.15,2013-08-01 19:11:00,
2013-08-01 13:13:00,80.1,41.1,29.77,East,90,4.0,7.0,25,0.00,,,0.00,Wunderground v.1.15,2013-08-01 19:13:00,
2013-08-01 13:15:00,80.1,40.0,29.77,East,101,4.0,9.0,24,0.00,,,0.00,Wunderground v.1.15,2013-08-01 19:15:00,
2013-08-01 13:18:00,79.9,41.9,29.77,ESE,117,4.0,9.0,26,0.00,,,0.00,Wunderground v.1.15,2013-08-01 19:18:00,
2013-08-01 13:19:00,80.0,43.0,29.77,SE,136,4.0,9.0,27,0.00,,,0.00,Wunderground v.1.15,2013-08-01 19:19:00,
2013-08-01 13:23:00,80.3,42.3,29.77,SE,142,3.0,4.0,26,0.00,,,0.00,Wunderground v.1.15,2013-08-01 19:23:00,
2013-08-01 13:25:00,80.2,41.2,29.76,South,187,2.0,4.0,25,0.00,,,0.00,Wunderground v.1.15,2013-08-01 19:25:00,
2013-08-01 13:26:00,80.3,42.3,29.76,ESE,118,2.0,4.0,26,0.00,,,0.00,Wunderground v.1.15,2013-08-01 19:26:00,
2013-08-01 13:29:00,80.1,42.1,29.76,ESE,108,2.0,4.0,26,0.00,,,0.00,Wunderground v.1.15,2013-08-01 19:29:00,
2013-08-01 13:33:00,79.6,41.7,29.76,East,85,2.0,2.0,26,0.00,,,0.00,Wunderground v.1.15,2013-08-01 19:33:00,
2013-08-01 13:36:00,79.3,41.4,29.77,ESE,116,1.0,2.0,26,0.00,,,0.00,Wunderground v.1.15,2013-08-01 19:36:00,
2013-08-01 13:41:00,78.1,41.4,29.78,SSW,201,3.0,11.0,27,0.00,,,0.00,Wunderground v.1.15,2013-08-01 19:41:00,
2013-08-01 13:42:00,77.6,41.9,29.78,WSW,242,4.0,11.0,28,0.00,,,0.00,Wunderground v.1.15,2013-08-01 19:42:00,
2013-08-01 13:47:00,73.3,53.0,29.80,NW,321,6.0,11.0,49,1.37,,,0.08,Wunderground v.1.15,2013-08-01 19:47:00,
2013-08-01 13:50:00,70.1,50.0,29.80,West,276,6.0,6.0,49,0.28,,,0.12,Wunderground v.1.15,2013-08-01 19:50:00,
2013-08-01 13:53:00,68.7,48.2,29.80,WSW,239,5.0,12.0,48,0.18,,,0.12,Wunderground v.1.15,2013-08-01 19:53:00,
2013-08-01 13:57:00,68.4,47.9,29.80,SSW,211,6.0,12.0,48,0.07,,,0.12,Wunderground v.1.15,2013-08-01 19:57:00,
2013-08-01 14:00:00,68.3,48.4,29.80,SW,224,7.0,7.0,49,0.06,,,0.12,Wunderground v.1.15,2013-08-01 20:00:00,
2013-08-01 14:04:00,68.5,48.6,29.80,West,264,7.0,11.0,49,0.04,,,0.12,Wunderground v.1.15,2013-08-01 20:04:00,
2013-08-01 14:08:00,68.5,47.5,29.81,WNW,290,7.0,11.0,47,0.00,,,0.12,Wunderground v.1.15,2013-08-01 20:08:00,
2013-08-01 14:11:00,67.8,47.9,29.81,West,267,8.0,14.0,49,0.00,,,0.12,Wunderground v.1.15,2013-08-01 20:11:00,
2013-08-01 14:16:00,66.9,47.1,29.82,West,269,8.0,14.0,49,0.00,,,0.12,Wunderground v.1.15,2013-08-01 20:16:00,
2013-08-01 14:18:00,66.4,48.7,29.82,NW,309,8.0,14.0,53,0.00,,,0.12,Wunderground v.1.15,2013-08-01 20:18:00,
2013-08-01 14:24:00,63.5,51.5,29.81,North,11,5.0,7.0,65,0.16,,,0.14,Wunderground v.1.15,2013-08-01 20:24:00,
2013-08-01 14:25:00,63.1,50.3,29.81,East,79,4.0,7.0,63,0.16,,,0.14,Wunderground v.1.15,2013-08-01 20:25:00,
2013-08-01 14:30:00,63.4,51.4,29.78,ENE,75,2.0,2.0,65,0.08,,,0.14,Wunderground v.1.15,2013-08-01 20:30:00,
2013-08-01 14:31:00,63.9,51.9,29.78,SE,143,3.0,4.0,65,0.07,,,0.14,Wunderground v.1.15,2013-08-01 20:31:00,
2013-08-01 14:32:00,64.3,50.6,29.78,SE,125,3.0,4.0,61,0.06,,,0.14,Wunderground v.1.15,2013-08-01 20:32:00,
2013-08-01 14:37:00,66.6,51.8,29.79,WSW,257,3.0,8.0,59,0.04,,,0.14,Wunderground v.1.15,2013-08-01 20:37:00,
2013-08-01 14:38:00,66.5,53.5,29.79,WNW,285,3.0,8.0,63,0.04,,,0.14,Wunderground v.1.15,2013-08-01 20:38:00,
2013-08-01 14:42:00,65.9,52.5,29.79,WNW,302,4.0,5.0,62,0.00,,,0.14,Wunderground v.1.15,2013-08-01 20:42:00,
2013-08-01 14:44:00,66.0,53.5,29.79,NW,305,4.0,5.0,64,0.00,,,0.14,Wunderground v.1.15,2013-08-01 20:44:00,
2013-08-01 14:45:00,66.2,54.5,29.78,WNW,284,4.0,5.0,66,0.00,,,0.14,Wunderground v.1.15,2013-08-01 20:45:00,
2013-08-01 14:46:00,66.5,53.9,29.78,WNW,300,4.0,6.0,64,0.00,,,0.14,Wunderground v.1.15,2013-08-01 20:46:00,
2013-08-01 14:48:00,66.7,52.8,29.78,WNW,302,4.0,6.0,61,0.00,,,0.14,Wunderground v.1.15,2013-08-01 20:48:00,
2013-08-01 14:50:00,66.7,54.6,29.78,NW,311,4.0,6.0,65,0.00,,,0.14,Wunderground v.1.15,2013-08-01 20:50:00,
2013-08-01 14:54:00,66.6,53.2,29.78,NW,319,5.0,6.0,62,0.00,,,0.14,Wunderground v.1.15,2013-08-01 20:54:00,
2013-08-01 14:56:00,66.8,53.4,29.78,WNW,294,5.0,6.0,62,0.00,,,0.14,Wunderground v.1.15,2013-08-01 20:56:00,
2013-08-01 15:00:00,67.4,54.8,29.77,NW,304,4.0,4.0,64,0.00,,,0.14,Wunderground v.1.15,2013-08-01 21:00:00,
2013-08-01 15:01:00,67.5,54.5,29.77,NW,310,4.0,4.0,63,0.00,,,0.14,Wunderground v.1.15,2013-08-01 21:01:00,
2013-08-01 15:03:00,67.7,54.2,29.77,West,259,4.0,4.0,62,0.00,,,0.14,Wunderground v.1.15,2013-08-01 21:03:00,
2013-08-01 15:05:00,68.2,55.1,29.77,West,264,3.0,4.0,63,0.00,,,0.14,Wunderground v.1.15,2013-08-01 21:05:00,
2013-08-01 15:07:00,68.6,55.9,29.77,NNW,339,3.0,4.0,64,0.00,,,0.14,Wunderground v.1.15,2013-08-01 21:07:00,
2013-08-01 15:10:00,68.9,54.4,29.76,WNW,290,2.0,3.0,60,0.00,,,0.14,Wunderground v.1.15,2013-08-01 21:10:00,
2013-08-01 15:12:00,69.0,55.0,29.76,WNW,302,2.0,3.0,61,0.00,,,0.14,Wunderground v.1.15,2013-08-01 21:12:00,
2013-08-01 15:14:00,69.6,54.2,29.76,WNW,294,2.0,3.0,58,0.00,,,0.14,Wunderground v.1.15,2013-08-01 21:14:00,
2013-08-01 15:15:00,69.8,53.9,29.76,West,264,2.0,3.0,57,0.00,,,0.14,Wunderground v.1.15,2013-08-01 21:15:00,
2013-08-01 15:17:00,70.3,53.9,29.76,WNW,284,2.0,3.0,56,0.00,,,0.14,Wunderground v.1.15,2013-08-01 21:17:00,
2013-08-01 15:22:00,71.6,47.9,29.76,WSW,252,3.0,3.0,43,0.00,,,0.14,Wunderground v.1.15,2013-08-01 21:22:00,
2013-08-01 15:24:00,72.0,47.6,29.76,NW,310,3.0,4.0,42,0.00,,,0.14,Wunderground v.1.15,2013-08-01 21:24:00,
2013-08-01 15:26:00,72.3,47.9,29.75,WNW,297,3.0,4.0,42,0.00,,,0.14,Wunderground v.1.15,2013-08-01 21:26:00,
2013-08-01 15:27:00,72.5,46.8,29.75,West,259,3.0,4.0,40,0.00,,,0.14,Wunderground v.1.15,2013-08-01 21:27:00,
2013-08-01 15:31:00,73.1,48.0,29.75,North,4,3.0,3.0,41,0.00,,,0.14,Wunderground v.1.15,2013-08-01 21:31:00,
2013-08-01 15:33:00,73.1,49.3,29.75,NW,325,3.0,3.0,43,0.00,,,0.14,Wunderground v.1.15,2013-08-01 21:33:00,
2013-08-01 15:36:00,73.3,48.2,29.75,WNW,293,3.0,4.0,41,0.00,,,0.14,Wunderground v.1.15,2013-08-01 21:36:00,
2013-08-01 15:37:00,73.4,46.9,29.75,WNW,288,3.0,4.0,39,0.00,,,0.14,Wunderground v.1.15,2013-08-01 21:37:00,
2013-08-01 15:41:00,73.6,48.4,29.75,West,274,3.0,3.0,41,0.00,,,0.14,Wunderground v.1.15,2013-08-01 21:41:00,
2013-08-01 15:42:00,73.7,48.5,29.75,West,273,3.0,3.0,41,0.00,,,0.14,Wunderground v.1.15,2013-08-01 21:42:00,
2013-08-01 15:43:00,73.8,48.0,29.75,West,266,3.0,3.0,40,0.00,,,0.14,Wunderground v.1.15,2013-08-01 21:43:00,
2013-08-01 15:44:00,74.0,46.8,29.75,WNW,293,3.0,3.0,38,0.00,,,0.14,Wunderground v.1.15,2013-08-01 21:44:00,
2013-08-01 15:49:00,74.2,48.3,29.75,West,260,3.0,4.0,40,0.00,,,0.14,Wunderground v.1.15,2013-08-01 21:49:00,
2013-08-01 15:50:00,74.3,48.4,29.75,WSW,246,3.0,3.0,40,0.00,,,0.14,Wunderground v.1.15,2013-08-01 21:50:00,
2013-08-01 15:55:00,75.1,47.0,29.74,West,260,3.0,6.0,37,0.00,,,0.14,Wunderground v.1.15,2013-08-01 21:55:00,
2013-08-01 15:56:00,75.5,47.4,29.74,WNW,284,3.0,6.0,37,0.00,,,0.14,Wunderground v.1.15,2013-08-01 21:56:00,
2013-08-01 16:00:00,76.0,44.8,29.74,West,262,5.0,7.0,33,0.00,,,0.14,Wunderground v.1.15,2013-08-01 22:00:00,
2013-08-01 16:02:00,76.2,45.0,29.75,SW,218,6.0,11.0,33,0.00,,,0.14,Wunderground v.1.15,2013-08-01 22:02:00,
2013-08-01 16:05:00,76.2,42.5,29.74,SW,221,7.0,11.0,30,0.00,,,0.14,Wunderground v.1.15,2013-08-01 22:05:00,
2013-08-01 16:09:00,76.1,43.3,29.74,WSW,239,9.0,11.0,31,0.00,,,0.14,Wunderground v.1.15,2013-08-01 22:09:00,
2013-08-01 16:11:00,76.0,44.0,29.74,SW,221,9.0,12.0,32,0.00,,,0.14,Wunderground v.1.15,2013-08-01 22:11:00,
2013-08-01 16:12:00,75.9,43.1,29.74,WSW,251,9.0,12.0,31,0.00,,,0.14,Wunderground v.1.15,2013-08-01 22:12:00,
2013-08-01 16:15:00,75.9,43.9,29.74,SW,224,8.0,12.0,32,0.00,,,0.14,Wunderground v.1.15,2013-08-01 22:15:00,
2013-08-01 16:17:00,76.0,44.0,29.74,South,174,8.0,12.0,32,0.00,,,0.14,Wunderground v.1.15,2013-08-01 22:17:00,
2013-08-01 16:19:00,76.0,44.8,29.74,WSW,255,7.0,12.0,33,0.00,,,0.14,Wunderground v.1.15,2013-08-01 22:19:00,
2013-08-01 16:20:00,76.0,44.8,29.74,SSW,211,7.0,13.0,33,0.00,,,0.14,Wunderground v.1.15,2013-08-01 22:20:00,
2013-08-01 16:22:00,75.9,44.7,29.74,South,180,7.0,13.0,33,0.00,,,0.14,Wunderground v.1.15,2013-08-01 22:22:00,
2013-08-01 16:23:00,75.9,44.7,29.74,WSW,238,7.0,13.0,33,0.00,,,0.14,Wunderground v.1.15,2013-08-01 22:23:00,
2013-08-01 16:25:00,75.9,45.5,29.75,SW,225,6.0,13.0,34,0.00,,,0.14,Wunderground v.1.15,2013-08-01 22:25:00,
2013-08-01 16:29:00,75.6,43.7,29.75,SSW,197,6.0,13.0,32,0.00,,,0.14,Wunderground v.1.15,2013-08-01 22:29:00,
2013-08-01 16:30:00,75.6,44.5,29.75,SSW,193,6.0,6.0,33,0.00,,,0.14,Wunderground v.1.15,2013-08-01 22:30:00,
2013-08-01 16:31:00,75.4,43.5,29.74,SSW,208,6.0,10.0,32,0.00,,,0.14,Wunderground v.1.15,2013-08-01 22:31:00,
2013-08-01 16:32:00,75.4,43.5,29.75,SW,218,6.0,10.0,32,0.00,,,0.14,Wunderground v.1.15,2013-08-01 22:32:00,
2013-08-01 16:35:00,75.3,45.0,29.75,SW,226,6.0,10.0,34,0.00,,,0.14,Wunderground v.1.15,2013-08-01 22:35:00,
2013-08-01 16:39:00,75.1,44.0,29.75,West,259,5.0,10.0,33,0.00,,,0.14,Wunderground v.1.15,2013-08-01 22:39:00,
2013-08-01 16:43:00,75.0,43.9,29.75,SW,232,4.0,5.0,33,0.00,,,0.14,Wunderground v.1.15,2013-08-01 22:43:00,
2013-08-01 16:44:00,74.9,43.8,29.75,WSW,255,4.0,7.0,33,0.00,,,0.14,Wunderground v.1.15,2013-08-01 22:44:00,
2013-08-01 16:46:00,74.8,43.0,29.75,West,266,5.0,7.0,32,0.00,,,0.14,Wunderground v.1.15,2013-08-01 22:46:00,
2013-08-01 16:50:00,74.6,42.8,29.75,WSW,256,5.0,5.0,32,0.00,,,0.14,Wunderground v.1.15,2013-08-01 22:50:00,
2013-08-01 16:53:00,74.6,44.4,29.75,WSW,242,5.0,6.0,34,0.00,,,0.14,Wunderground v.1.15,2013-08-01 22:53:00,
2013-08-01 16:55:00,74.5,42.7,29.75,West,271,5.0,6.0,32,0.00,,,0.14,Wunderground v.1.15,2013-08-01 22:55:00,
2013-08-01 16:58:00,74.4,44.2,29.75,South,191,5.0,6.0,34,0.00,,,0.14,Wunderground v.1.15,2013-08-01 22:58:00,
2013-08-01 17:01:00,74.3,44.1,29.75,SSW,201,5.0,6.0,34,0.00,,,0.14,Wunderground v.1.15,2013-08-01 23:01:00,
2013-08-01 17:03:00,74.3,43.3,29.75,West,262,5.0,6.0,33,0.00,,,0.14,Wunderground v.1.15,2013-08-01 23:03:00,
2013-08-01 17:04:00,74.2,44.0,29.75,West,270,5.0,6.0,34,0.00,,,0.14,Wunderground v.1.15,2013-08-01 23:04:00,
2013-08-01 17:07:00,74.1,43.9,29.75,West,265,5.0,6.0,34,0.00,,,0.14,Wunderground v.1.15,2013-08-01 23:07:00,
2013-08-01 17:10:00,74.2,44.8,29.75,SSW,201,5.0,5.0,35,0.00,,,0.14,Wunderground v.1.15,2013-08-01 23:10:00,
2013-08-01 17:15:00,74.5,46.5,29.76,East,79,3.0,5.0,37,0.00,,,0.14,Wunderground v.1.15,2013-08-01 23:15:00,
2013-08-01 17:16:00,74.6,46.6,29.76,East,84,3.0,5.0,37,0.00,,,0.14,Wunderground v.1.15,2013-08-01 23:16:00,
2013-08-01 17:18:00,74.6,46.6,29.76,ESE,102,2.0,5.0,37,0.00,,,0.14,Wunderground v.1.15,2013-08-01 23:18:00,
2013-08-01 17:22:00,74.1,43.9,29.76,ESE,105,3.0,6.0,34,0.00,,,0.14,Wunderground v.1.15,2013-08-01 23:22:00,
2013-08-01 17:27:00,73.7,44.3,29.75,ENE,72,4.0,6.0,35,0.00,,,0.14,Wunderground v.1.15,2013-08-01 23:27:00,
2013-08-01 17:29:00,73.7,44.3,29.75,ENE,67,3.0,6.0,35,0.00,,,0.14,Wunderground v.1.15,2013-08-01 23:29:00,
2013-08-01 17:30:00,73.8,43.7,29.75,ENE,60,3.0,4.0,34,0.00,,,0.14,Wunderground v.1.15,2013-08-01 23:30:00,
2013-08-01 17:32:00,73.8,44.4,29.75,NE,49,3.0,4.0,35,0.00,,,0.14,Wunderground v.1.15,2013-08-01 23:32:00,
2013-08-01 17:33:00,73.8,44.4,29.75,East,89,3.0,4.0,35,0.00,,,0.14,Wunderground v.1.15,2013-08-01 23:33:00,
2013-08-01 17:38:00,73.7,44.3,29.75,East,79,3.0,4.0,35,0.00,,,0.14,Wunderground v.1.15,2013-08-01 23:38:00,
2013-08-01 17:39:00,73.8,44.4,29.75,NE,49,4.0,7.0,35,0.00,,,0.14,Wunderground v.1.15,2013-08-01 23:39:00,
2013-08-01 17:40:00,73.7,43.6,29.75,ENE,78,4.0,4.0,34,0.00,,,0.14,Wunderground v.1.15,2013-08-01 23:40:00,
2013-08-01 17:46:00,73.7,44.3,29.75,ENE,65,3.0,5.0,35,0.00,,,0.14,Wunderground v.1.15,2013-08-01 23:46:00,
2013-08-01 17:47:00,73.5,44.9,29.75,East,92,3.0,5.0,36,0.00,,,0.14,Wunderground v.1.15,2013-08-01 23:47:00,
2013-08-01 17:48:00,73.4,44.8,29.75,ESE,108,4.0,5.0,36,0.00,,,0.14,Wunderground v.1.15,2013-08-01 23:48:00,
2013-08-01 17:50:00,73.1,44.5,29.75,East,81,3.0,3.0,36,0.00,,,0.14,Wunderground v.1.15,2013-08-01 23:50:00,
2013-08-01 17:53:00,72.8,45.7,29.75,East,86,4.0,5.0,38,0.00,,,0.14,Wunderground v.1.15,2013-08-01 23:53:00,
2013-08-01 17:54:00,72.8,45.0,29.75,East,82,3.0,5.0,37,0.00,,,0.14,Wunderground v.1.15,2013-08-01 23:54:00,
2013-08-01 17:55:00,72.7,45.6,29.75,East,83,3.0,5.0,38,0.00,,,0.14,Wunderground v.1.15,2013-08-01 23:55:00,
2013-08-01 18:00:00,72.7,45.6,29.75,East,94,2.0,2.0,38,0.00,,,0.14,Wunderground v.1.15,2013-08-02 00:00:00,
2013-08-01 18:01:00,72.7,46.3,29.75,East,93,2.0,2.0,39,0.00,,,0.14,Wunderground v.1.15,2013-08-02 00:01:00,
2013-08-01 18:02:00,72.8,46.4,29.75,SSW,198,1.0,2.0,39,0.00,,,0.14,Wunderground v.1.15,2013-08-02 00:02:00,
2013-08-01 18:06:00,72.9,45.1,29.75,East,94,1.0,2.0,37,0.00,,,0.14,Wunderground v.1.15,2013-08-02 00:06:00,
2013-08-01 18:10:00,72.9,45.1,29.75,ENE,62,1.0,2.0,37,0.00,,,0.14,Wunderground v.1.15,2013-08-02 00:10:00,
2013-08-01 18:12:00,72.8,45.0,29.75,ENE,58,1.0,2.0,37,0.00,,,0.14,Wunderground v.1.15,2013-08-02 00:12:00,
2013-08-01 18:14:00,72.7,44.9,29.74,NE,46,1.0,2.0,37,0.00,,,0.14,Wunderground v.1.15,2013-08-02 00:14:00,
2013-08-01 18:16:00,72.7,45.6,29.74,ENE,67,1.0,4.0,38,0.00,,,0.14,Wunderground v.1.15,2013-08-02 00:16:00,
2013-08-01 18:21:00,72.5,46.1,29.74,ESE,122,2.0,5.0,39,0.00,,,0.14,Wunderground v.1.15,2013-08-02 00:21:00,
2013-08-01 18:22:00,72.4,46.0,29.74,ESE,108,2.0,5.0,39,0.00,,,0.14,Wunderground v.1.15,2013-08-02 00:22:00,
2013-08-01 18:24:00,72.5,46.1,29.74,ESE,109,2.0,5.0,39,0.00,,,0.14,Wunderground v.1.15,2013-08-02 00:24:00,
2013-08-01 18:26:00,72.4,46.0,29.74,NNE,27,2.0,5.0,39,0.00,,,0.14,Wunderground v.1.15,2013-08-02 00:26:00,
2013-08-01 18:30:00,72.5,46.1,29.74,NNE,27,1.0,1.0,39,0.00,,,0.14,Wunderground v.1.15,2013-08-02 00:30:00,
2013-08-01 18:33:00,72.6,45.5,29.74,ENE,65,0.0,3.0,38,0.00,,,0.14,Wunderground v.1.15,2013-08-02 00:33:00,
2013-08-01 18:36:00,72.5,45.4,29.74,ENE,57,0.0,3.0,38,0.00,,,0.14,Wunderground v.1.15,2013-08-02 00:36:00,
2013-08-01 18:37:00,72.4,45.4,29.74,East,79,0.0,3.0,38,0.00,,,0.14,Wunderground v.1.15,2013-08-02 00:37:00,
2013-08-01 18:41:00,72.2,45.9,29.74,SE,124,1.0,3.0,39,0.00,,,0.14,Wunderground v.1.15,2013-08-02 00:41:00,
2013-08-01 18:44:00,72.0,45.7,29.74,SW,218,2.0,3.0,39,0.00,,,0.14,Wunderground v.1.15,2013-08-02 00:44:00,
2013-08-01 18:45:00,72.0,45.7,29.74,South,176,2.0,3.0,39,0.00,,,0.14,Wunderground v.1.15,2013-08-02 00:45:00,
2013-08-01 18:47:00,71.9,45.6,29.74,SW,224,2.0,3.0,39,0.00,,,0.14,Wunderground v.1.15,2013-08-02 00:47:00,
2013-08-01 18:50:00,71.9,46.3,29.74,SW,222,1.0,1.0,40,0.00,,,0.14,Wunderground v.1.15,2013-08-02 00:50:00,
2013-08-01 18:51:00,72.0,46.3,29.74,SW,221,1.0,1.0,40,0.00,,,0.14,Wunderground v.1.15,2013-08-02 00:51:00,
2013-08-01 18:53:00,72.3,45.9,29.74,West,274,1.0,2.0,39,0.00,,,0.14,Wunderground v.1.15,2013-08-02 00:53:00,
2013-08-01 18:56:00,72.6,44.8,29.74,West,269,1.0,2.0,37,0.00,,,0.14,Wunderground v.1.15,2013-08-02 00:56:00,
2013-08-01 18:59:00,72.8,45.7,29.74,SW,217,1.0,2.0,38,0.00,,,0.14,Wunderground v.1.15,2013-08-02 00:59:00,
2013-08-01 19:01:00,72.8,46.4,29.74,WSW,248,1.0,1.0,39,0.00,,,0.14,Wunderground v.1.15,2013-08-02 01:01:00,
2013-08-01 19:04:00,72.8,46.4,29.74,WSW,252,1.0,1.0,39,0.00,,,0.14,Wunderground v.1.15,2013-08-02 01:04:00,
2013-08-01 19:08:00,72.3,45.9,29.74,NE,52,1.0,3.0,39,0.00,,,0.14,Wunderground v.1.15,2013-08-02 01:08:00,
2013-08-01 19:10:00,72.1,46.4,29.74,NNE,25,1.0,1.0,40,0.00,,,0.14,Wunderground v.1.15,2013-08-02 01:10:00,
2013-08-01 19:11:00,71.9,46.3,29.74,NNE,15,1.0,1.0,40,0.00,,,0.14,Wunderground v.1.15,2013-08-02 01:11:00,
2013-08-01 19:13:00,71.7,46.1,29.74,NNE,18,2.0,2.0,40,0.00,,,0.14,Wunderground v.1.15,2013-08-02 01:13:00,
2013-08-01 19:16:00,71.6,46.0,29.74,West,269,2.0,4.0,40,0.00,,,0.14,Wunderground v.1.15,2013-08-02 01:16:00,
2013-08-01 19:19:00,71.9,46.3,29.74,WNW,288,2.0,6.0,40,0.00,,,0.14,Wunderground v.1.15,2013-08-02 01:19:00,
2013-08-01 19:21:00,72.1,46.4,29.74,SW,222,3.0,6.0,40,0.00,,,0.14,Wunderground v.1.15,2013-08-02 01:21:00,
2013-08-01 19:22:00,72.2,45.9,29.74,SSW,195,3.0,6.0,39,0.00,,,0.14,Wunderground v.1.15,2013-08-02 01:22:00,
2013-08-01 19:23:00,72.3,45.9,29.74,SW,215,4.0,6.0,39,0.00,,,0.14,Wunderground v.1.15,2013-08-02 01:23:00,
2013-08-01 19:25:00,72.5,46.1,29.74,West,262,5.0,8.0,39,0.00,,,0.14,Wunderground v.1.15,2013-08-02 01:25:00,
2013-08-01 19:28:00,72.6,46.9,29.74,WSW,257,5.0,8.0,40,0.00,,,0.14,Wunderground v.1.15,2013-08-02 01:28:00,
2013-08-01 19:31:00,72.3,45.9,29.74,West,262,5.0,8.0,39,0.00,,,0.14,Wunderground v.1.15,2013-08-02 01:31:00,
2013-08-01 19:33:00,72.2,46.5,29.74,West,280,5.0,8.0,40,0.00,,,0.14,Wunderground v.1.15,2013-08-02 01:33:00,
2013-08-01 19:39:00,71.7,46.7,29.74,SW,218,5.0,8.0,41,0.00,,,0.14,Wunderground v.1.15,2013-08-02 01:39:00,
2013-08-01 19:41:00,71.5,46.6,29.74,WSW,252,4.0,4.0,41,0.00,,,0.14,Wunderground v.1.15,2013-08-02 01:41:00,
2013-08-01 19:44:00,71.3,46.4,29.74,West,278,4.0,7.0,41,0.00,,,0.14,Wunderground v.1.15,2013-08-02 01:44:00,
2013-08-01 19:47:00,71.0,46.7,29.74,SW,224,4.0,7.0,42,0.00,,,0.14,Wunderground v.1.15,2013-08-02 01:47:00,
2013-08-01 19:49:00,70.8,46.6,29.74,West,264,5.0,10.0,42,0.00,,,0.14,Wunderground v.1.15,2013-08-02 01:49:00,
2013-08-01 19:50:00,70.8,46.6,29.74,SSW,210,5.0,10.0,42,0.00,,,0.14,Wunderground v.1.15,2013-08-02 01:50:00,
2013-08-01 19:54:00,70.6,47.0,29.74,West,281,6.0,10.0,43,0.00,,,0.14,Wunderground v.1.15,2013-08-02 01:54:00,
2013-08-01 19:56:00,70.5,46.9,29.74,West,279,6.0,10.0,43,0.00,,,0.14,Wunderground v.1.15,2013-08-02 01:56:00,
2013-08-01 19:58:00,70.4,46.8,29.74,West,262,6.0,10.0,43,0.00,,,0.14,Wunderground v.1.15,2013-08-02 01:58:00,
2013-08-01 20:00:00,70.3,46.7,29.74,SW,214,6.0,7.0,43,0.00,,,0.14,Wunderground v.1.15,2013-08-02 02:00:00,
2013-08-01 20:02:00,70.2,46.6,29.74,West,274,6.0,7.0,43,0.00,,,0.14,Wunderground v.1.15,2013-08-02 02:02:00,
2013-08-01 20:05:00,69.9,47.0,29.74,West,281,5.0,7.0,44,0.00,,,0.14,Wunderground v.1.15,2013-08-02 02:05:00,
2013-08-01 20:06:00,69.8,46.9,29.74,West,274,5.0,7.0,44,0.00,,,0.14,Wunderground v.1.15,2013-08-02 02:06:00,
2013-08-01 20:09:00,69.4,47.1,29.74,West,273,5.0,8.0,45,0.00,,,0.14,Wunderground v.1.15,2013-08-02 02:09:00,
2013-08-01 20:12:00,69.3,47.0,29.74,WNW,284,5.0,9.0,45,0.00,,,0.14,Wunderground v.1.15,2013-08-02 02:12:00,
2013-08-01 20:14:00,69.5,46.6,29.75,WSW,252,6.0,12.0,44,0.00,,,0.14,Wunderground v.1.15,2013-08-02 02:14:00,
2013-08-01 20:15:00,69.5,46.6,29.74,West,260,6.0,12.0,44,0.00,,,0.14,Wunderground v.1.15,2013-08-02 02:15:00,
2013-08-01 20:16:00,69.5,46.6,29.74,WNW,302,6.0,12.0,44,0.00,,,0.14,Wunderground v.1.15,2013-08-02 02:16:00,
2013-08-01 20:17:00,69.5,46.6,29.75,West,259,6.0,12.0,44,0.00,,,0.14,Wunderground v.1.15,2013-08-02 02:17:00,
2013-08-01 20:20:00,69.6,46.7,29.75,West,269,7.0,7.0,44,0.00,,,0.14,Wunderground v.1.15,2013-08-02 02:20:00,
2013-08-01 20:22:00,69.5,46.6,29.75,West,271,7.0,8.0,44,0.00,,,0.14,Wunderground v.1.15,2013-08-02 02:22:00,
2013-08-01 20:23:00,69.4,46.5,29.74,WNW,282,7.0,8.0,44,0.00,,,0.14,Wunderground v.1.15,2013-08-02 02:23:00,
2013-08-01 20:26:00,69.3,46.4,29.74,WSW,255,7.0,9.0,44,0.00,,,0.14,Wunderground v.1.15,2013-08-02 02:26:00,
2013-08-01 20:27:00,69.4,46.5,29.75,WSW,255,7.0,10.0,44,0.00,,,0.14,Wunderground v.1.15,2013-08-02 02:27:00,
2013-08-01 20:29:00,69.4,46.5,29.75,WSW,255,7.0,10.0,44,0.00,,,0.14,Wunderground v.1.15,2013-08-02 02:29:00,
2013-08-01 20:31:00,69.3,46.4,29.75,West,281,7.0,9.0,44,0.00,,,0.14,Wunderground v.1.15,2013-08-02 02:31:00,
2013-08-01 20:32:00,69.3,46.4,29.75,West,279,7.0,9.0,44,0.00,,,0.14,Wunderground v.1.15,2013-08-02 02:32:00,
2013-08-01 20:33:00,69.2,46.4,29.75,West,280,7.0,9.0,44,0.00,,,0.14,Wunderground v.1.15,2013-08-02 02:33:00,
2013-08-01 20:38:00,69.1,46.3,29.75,West,281,7.0,9.0,44,0.00,,,0.14,Wunderground v.1.15,2013-08-02 02:38:00,
2013-08-01 20:39:00,69.0,46.2,29.75,WSW,255,7.0,7.0,44,0.00,,,0.14,Wunderground v.1.15,2013-08-02 02:39:00,
2013-08-01 20:42:00,69.0,46.2,29.74,WNW,287,7.0,10.0,44,0.00,,,0.14,Wunderground v.1.15,2013-08-02 02:42:00,
2013-08-01 20:45:00,68.9,46.1,29.75,West,264,7.0,10.0,44,0.00,,,0.14,Wunderground v.1.15,2013-08-02 02:45:00,
2013-08-01 20:46:00,68.9,46.1,29.75,WNW,287,7.0,10.0,44,0.00,,,0.14,Wunderground v.1.15,2013-08-02 02:46:00,
2013-08-01 20:51:00,69.0,46.2,29.75,WNW,288,7.0,7.0,44,0.00,,,0.14,Wunderground v.1.15,2013-08-02 02:51:00,
2013-08-01 20:54:00,68.8,46.6,29.74,West,262,6.0,7.0,45,0.00,,,0.14,Wunderground v.1.15,2013-08-02 02:54:00,
2013-08-01 20:56:00,68.7,45.9,29.74,West,280,6.0,11.0,44,0.00,,,0.14,Wunderground v.1.15,2013-08-02 02:56:00,
2013-08-01 20:57:00,68.7,46.5,29.74,West,259,6.0,11.0,45,0.00,,,0.14,Wunderground v.1.15,2013-08-02 02:57:00,
2013-08-01 21:00:00,68.6,45.8,29.74,West,274,6.0,6.0,44,0.00,,,0.14,Wunderground v.1.15,2013-08-02 03:00:00,
2013-08-01 21:01:00,68.6,45.8,29.74,WSW,246,6.0,7.0,44,0.00,,,0.14,Wunderground v.1.15,2013-08-02 03:01:00,
2013-08-01 21:02:00,68.6,46.4,29.74,WSW,250,6.0,7.0,45,0.00,,,0.14,Wunderground v.1.15,2013-08-02 03:02:00,
2013-08-01 21:08:00,68.2,46.0,29.74,West,262,5.0,8.0,45,0.00,,,0.14,Wunderground v.1.15,2013-08-02 03:08:00,
2013-08-01 21:12:00,68.0,45.9,29.74,SW,229,5.0,8.0,45,0.00,,,0.14,Wunderground v.1.15,2013-08-02 03:12:00,
2013-08-01 21:15:00,67.9,45.8,29.74,West,266,5.0,8.0,45,0.00,,,0.14,Wunderground v.1.15,2013-08-02 03:15:00,
2013-08-01 21:16:00,67.9,45.2,29.74,West,262,6.0,8.0,44,0.00,,,0.14,Wunderground v.1.15,2013-08-02 03:16:00,
2013-08-01 21:21:00,67.9,45.2,29.74,West,274,6.0,6.0,44,0.00,,,0.14,Wunderground v.1.15,2013-08-02 03:21:00,
2013-08-01 21:22:00,67.9,45.2,29.74,WSW,238,6.0,6.0,44,0.00,,,0.14,Wunderground v.1.15,2013-08-02 03:22:00,
2013-08-01 21:25:00,67.7,45.0,29.74,West,278,7.0,10.0,44,0.00,,,0.14,Wunderground v.1.15,2013-08-02 03:25:00,
2013-08-01 21:28:00,67.9,45.2,29.74,West,262,8.0,15.0,44,0.00,,,0.14,Wunderground v.1.15,2013-08-02 03:28:00,
2013-08-01 21:29:00,67.8,45.1,29.74,NW,311,8.0,16.0,44,0.00,,,0.14,Wunderground v.1.15,2013-08-02 03:29:00,
2013-08-01 21:35:00,67.9,45.2,29.74,West,266,11.0,17.0,44,0.00,,,0.14,Wunderground v.1.15,2013-08-02 03:35:00,
2013-08-01 21:36:00,67.9,45.2,29.74,West,273,11.0,17.0,44,0.00,,,0.14,Wunderground v.1.15,2013-08-02 03:36:00,
2013-08-01 21:37:00,67.8,45.1,29.75,West,260,11.0,17.0,44,0.00,,,0.14,Wunderground v.1.15,2013-08-02 03:37:00,
2013-08-01 21:42:00,67.6,45.5,29.74,WSW,246,11.0,14.0,45,0.00,,,0.14,Wunderground v.1.15,2013-08-02 03:42:00,
2013-08-01 21:43:00,67.6,45.5,29.74,WSW,245,10.0,14.0,45,0.00,,,0.14,Wunderground v.1.15,2013-08-02 03:43:00,
2013-08-01 21:49:00,67.3,45.2,29.74,WSW,257,9.0,14.0,45,0.00,,,0.14,Wunderground v.1.15,2013-08-02 03:49:00,
2013-08-01 21:50:00,67.3,45.2,29.74,West,266,9.0,15.0,45,0.00,,,0.14,Wunderground v.1.15,2013-08-02 03:50:00,
2013-08-01 21:53:00,67.2,45.1,29.74,West,269,10.0,15.0,45,0.00,,,0.14,Wunderground v.1.15,2013-08-02 03:53:00,
2013-08-01 21:56:00,67.1,45.0,29.74,West,259,9.0,15.0,45,0.00,,,0.14,Wunderground v.1.15,2013-08-02 03:56:00,
2013-08-01 21:59:00,67.0,44.9,29.73,West,269,9.0,15.0,45,0.00,,,0.14,Wunderground v.1.15,2013-08-02 03:59:00,
2013-08-01 22:00:00,66.9,44.9,29.73,West,270,8.0,8.0,45,0.00,,,0.14,Wunderground v.1.15,2013-08-02 04:00:00,
2013-08-01 22:01:00,66.8,44.8,29.73,SW,222,6.0,8.0,45,0.00,,,0.14,Wunderground v.1.15,2013-08-02 04:01:00,
2013-08-01 22:02:00,66.7,45.3,29.73,SW,232,6.0,8.0,46,0.00,,,0.14,Wunderground v.1.15,2013-08-02 04:02:00,
2013-08-01 22:04:00,66.7,44.7,29.73,West,275,6.0,8.0,45,0.00,,,0.14,Wunderground v.1.15,2013-08-02 04:04:00,
2013-08-01 22:05:00,66.6,45.2,29.73,WSW,249,5.0,8.0,46,0.00,,,0.14,Wunderground v.1.15,2013-08-02 04:05:00,
2013-08-01 22:06:00,66.6,45.2,29.73,WSW,248,5.0,8.0,46,0.00,,,0.14,Wunderground v.1.15,2013-08-02 04:06:00,
2013-08-01 22:12:00,66.3,44.9,29.73,West,264,5.0,5.0,46,0.00,,,0.14,Wunderground v.1.15,2013-08-02 04:12:00,
2013-08-01 22:13:00,66.2,44.8,29.73,West,274,5.0,5.0,46,0.00,,,0.14,Wunderground v.1.15,2013-08-02 04:13:00,
2013-08-01 22:17:00,66.2,44.8,29.73,West,259,6.0,10.0,46,0.00,,,0.14,Wunderground v.1.15,2013-08-02 04:17:00,
2013-08-01 22:19:00,66.2,44.8,29.73,West,279,5.0,10.0,46,0.00,,,0.14,Wunderground v.1.15,2013-08-02 04:19:00,
2013-08-01 22:20:00,66.1,44.7,29.73,West,274,5.0,6.0,46,0.00,,,0.14,Wunderground v.1.15,2013-08-02 04:20:00,
2013-08-01 22:21:00,66.1,44.7,29.73,WSW,245,5.0,7.0,46,0.00,,,0.14,Wunderground v.1.15,2013-08-02 04:21:00,
2013-08-01 22:23:00,66.1,44.7,29.73,WSW,249,6.0,7.0,46,0.00,,,0.14,Wunderground v.1.15,2013-08-02 04:23:00,
2013-08-01 22:25:00,66.0,44.6,29.73,WSW,242,5.0,8.0,46,0.00,,,0.14,Wunderground v.1.15,2013-08-02 04:25:00,
2013-08-01 22:27:00,66.0,44.6,29.73,WSW,254,5.0,8.0,46,0.00,,,0.14,Wunderground v.1.15,2013-08-02 04:27:00,
2013-08-01 22:29:00,66.0,44.6,29.73,WSW,242,5.0,5.0,46,0.00,,,0.14,Wunderground v.1.15,2013-08-02 04:29:00,
2013-08-01 22:34:00,65.9,43.9,29.73,SW,236,5.0,7.0,45,0.00,,,0.14,Wunderground v.1.15,2013-08-02 04:34:00,
2013-08-01 22:35:00,65.9,43.9,29.73,West,267,5.0,7.0,45,0.00,,,0.14,Wunderground v.1.15,2013-08-02 04:35:00,
2013-08-01 22:36:00,65.9,43.9,29.72,West,271,5.0,7.0,45,0.00,,,0.14,Wunderground v.1.15,2013-08-02 04:36:00,
2013-08-01 22:39:00,65.9,43.9,29.72,SW,229,5.0,7.0,45,0.00,,,0.14,Wunderground v.1.15,2013-08-02 04:39:00,
2013-08-01 22:42:00,65.9,43.9,29.73,West,262,5.0,6.0,45,0.00,,,0.14,Wunderground v.1.15,2013-08-02 04:42:00,
2013-08-01 22:43:00,65.9,43.9,29.73,West,278,5.0,8.0,45,0.00,,,0.14,Wunderground v.1.15,2013-08-02 04:43:00,
2013-08-01 22:45:00,66.0,44.0,29.73,West,264,5.0,12.0,45,0.00,,,0.14,Wunderground v.1.15,2013-08-02 04:45:00,
2013-08-01 22:46:00,66.0,44.0,29.73,WSW,257,6.0,12.0,45,0.00,,,0.14,Wunderground v.1.15,2013-08-02 04:46:00,
2013-08-01 22:49:00,66.2,43.6,29.73,West,279,7.0,12.0,44,0.00,,,0.14,Wunderground v.1.15,2013-08-02 04:49:00,
2013-08-01 22:50:00,66.2,44.2,29.72,SW,235,7.0,7.0,45,0.00,,,0.14,Wunderground v.1.15,2013-08-02 04:50:00,
2013-08-01 22:54:00,66.3,43.7,29.72,WSW,246,9.0,16.0,44,0.00,,,0.14,Wunderground v.1.15,2013-08-02 04:54:00,
2013-08-01 22:55:00,66.2,44.2,29.72,West,264,9.0,16.0,45,0.00,,,0.14,Wunderground v.1.15,2013-08-02 04:55:00,
2013-08-01 22:56:00,66.2,43.6,29.72,SW,233,9.0,16.0,44,0.00,,,0.14,Wunderground v.1.15,2013-08-02 04:56:00,
2013-08-01 22:58:00,66.2,44.2,29.72,SSW,210,9.0,16.0,45,0.00,,,0.14,Wunderground v.1.15,2013-08-02 04:58:00,
2013-08-01 23:01:00,66.2,43.6,29.72,WNW,285,10.0,16.0,44,0.00,,,0.14,Wunderground v.1.15,2013-08-02 05:01:00,
2013-08-01 23:03:00,66.2,43.6,29.72,WSW,246,9.0,16.0,44,0.00,,,0.14,Wunderground v.1.15,2013-08-02 05:03:00,
2013-08-01 23:04:00,66.2,43.6,29.72,SW,231,9.0,16.0,44,0.00,,,0.14,Wunderground v.1.15,2013-08-02 05:04:00,
2013-08-01 23:06:00,66.2,43.6,29.72,WSW,257,9.0,16.0,44,0.00,,,0.14,Wunderground v.1.15,2013-08-02 05:06:00,
2013-08-01 23:08:00,66.2,43.6,29.72,WSW,248,9.0,16.0,44,0.00,,,0.14,Wunderground v.1.15,2013-08-02 05:08:00,
2013-08-01 23:09:00,66.1,43.5,29.72,West,273,9.0,16.0,44,0.00,,,0.14,Wunderground v.1.15,2013-08-02 05:09:00,
2013-08-01 23:10:00,66.1,43.5,29.72,WSW,252,9.0,9.0,44,0.00,,,0.14,Wunderground v.1.15,2013-08-02 05:10:00,
2013-08-01 23:11:00,66.1,43.5,29.72,West,273,9.0,9.0,44,0.00,,,0.14,Wunderground v.1.15,2013-08-02 05:11:00,
2013-08-01 23:15:00,66.0,43.5,29.72,SSW,204,8.0,9.0,44,0.00,,,0.14,Wunderground v.1.15,2013-08-02 05:15:00,
2013-08-01 23:16:00,66.0,43.5,29.72,West,280,8.0,9.0,44,0.00,,,0.14,Wunderground v.1.15,2013-08-02 05:16:00,
2013-08-01 23:18:00,65.9,43.4,29.72,West,264,7.0,16.0,44,0.00,,,0.14,Wunderground v.1.15,2013-08-02 05:18:00,
2013-08-01 23:20:00,65.9,43.4,29.72,West,273,7.0,9.0,44,0.00,,,0.14,Wunderground v.1.15,2013-08-02 05:20:00,
2013-08-01 23:26:00,66.2,43.0,29.72,West,279,8.0,17.0,43,0.00,,,0.14,Wunderground v.1.15,2013-08-02 05:26:00,
2013-08-01 23:27:00,66.3,42.5,29.72,West,281,9.0,17.0,42,0.00,,,0.14,Wunderground v.1.15,2013-08-02 05:27:00,
2013-08-01 23:28:00,66.4,42.6,29.72,West,281,9.0,17.0,42,0.00,,,0.14,Wunderground v.1.15,2013-08-02 05:28:00,
2013-08-01 23:30:00,66.4,43.2,29.72,WSW,248,9.0,14.0,43,0.00,,,0.14,Wunderground v.1.15,2013-08-02 05:30:00,
2013-08-01 23:33:00,66.4,42.6,29.72,West,260,10.0,14.0,42,0.00,,,0.14,Wunderground v.1.15,2013-08-02 05:33:00,
2013-08-01 23:34:00,66.4,42.6,29.72,WSW,245,10.0,14.0,42,0.00,,,0.14,Wunderground v.1.15,2013-08-02 05:34:00,
2013-08-01 23:36:00,66.4,42.6,29.72,WNW,294,10.0,14.0,42,0.00,,,0.14,Wunderground v.1.15,2013-08-02 05:36:00,
2013-08-01 23:40:00,66.5,42.7,29.72,WNW,284,11.0,19.0,42,0.00,,,0.14,Wunderground v.1.15,2013-08-02 05:40:00,
2013-08-01 23:44:00,66.5,42.7,29.72,WNW,288,12.0,19.0,42,0.00,,,0.14,Wunderground v.1.15,2013-08-02 05:44:00,
2013-08-01 23:48:00,66.2,42.4,29.72,West,259,12.0,19.0,42,0.00,,,0.14,Wunderground v.1.15,2013-08-02 05:48:00,
2013-08-01 23:49:00,66.2,42.4,29.72,WSW,252,11.0,19.0,42,0.00,,,0.14,Wunderground v.1.15,2013-08-02 05:49:00,
2013-08-01 23:50:00,66.2,42.4,29.72,West,275,11.0,11.0,42,0.00,,,0.14,Wunderground v.1.15,2013-08-02 05:50:00,
2013-08-01 23:51:00,66.1,42.3,29.71,WSW,248,10.0,11.0,42,0.00,,,0.14,Wunderground v.1.15,2013-08-02 05:51:00,
2013-08-01 23:52:00,66.1,42.3,29.71,WNW,293,10.0,11.0,42,0.00,,,0.14,Wunderground v.1.15,2013-08-02 05:52:00,
2013-08-01 23:55:00,65.9,42.8,29.71,West,262,10.0,18.0,43,0.00,,,0.14,Wunderground v.1.15,2013-08-02 05:55:00,
2013-08-01 23:57:00,65.9,42.8,29.71,West,274,10.0,18.0,43,0.00,,,0.14,Wunderground v.1.15,2013-08-02 05:57:00,
2013-08-01 23:58:00,65.9,42.8,29.71,SW,236,10.0,18.0,43,0.00,,,0.14,Wunderground v.1.15,2013-08-02 05:58:00,